Time,TemperatureF,DewpointF,PressureIn,WindDirection,WindDirectionDegrees,WindSpeedMPH,WindSpeedGustMPH,Humidity,HourlyPrecipIn,Conditions,Clouds,dailyrainin,SoftwareType,DateUTC
2013-04-05 00:01:00,41.3,27.2,30.01,NNE,30,0.0,1.0,57,0.00,,,0.00,WeatherCatV1.14B232,2013-04-05 06:01:00,
2013-04-05 00:06:00,41.3,26.8,30.01,SW,228,3.0,3.0,56,0.00,,,0.00,WeatherCatV1.14B232,2013-04-05 06:06:00,
2013-04-05 00:11:00,40.9,26.4,30.01,NNE,32,1.0,1.0,56,0.00,,,0.00,WeatherCatV1.14B232,2013-04-05 06:11:00,
2013-04-05 00:16:00,41.2,26.7,30.01,WSW,243,1.0,1.0,56,0.00,,,0.00,WeatherCatV1.14B232,2013-04-05 06:16:00,
2013-04-05 00:21:00,41.0,27.4,30.01,East,95,0.0,1.0,58,0.00,,,0.00,WeatherCatV1.14B232,2013-04-05 06:21:00,
2013-04-05 00:26:00,40.6,27.0,30.01,NNE,27,0.0,0.0,58,0.00,,,0.00,WeatherCatV1.14B232,2013-04-05 06:26:00,
2013-04-05 00:31:00,40.3,27.1,30.00,NNE,32,0.0,1.0,59,0.00,,,0.00,WeatherCatV1.14B232,2013-04-05 06:31:00,
2013-04-05 00:36:00,40.0,27.7,30.00,SW,225,0.0,1.0,61,0.00,,,0.00,WeatherCatV1.14B232,2013-04-05 06:36:00,
2013-04-05 00:41:00,39.7,27.4,30.00,ESE,108,2.0,2.0,61,0.00,,,0.00,WeatherCatV1.14B232,2013-04-05 06:41:00,
2013-04-05 00:46:00,39.7,28.2,30.00,SE,143,0.0,2.0,63,0.00,,,0.00,WeatherCatV1.14B232,2013-04-05 06:46:00,
2013-04-05 00:51:00,39.5,27.6,30.00,South,170,2.0,2.0,62,0.00,,,0.00,WeatherCatV1.14B232,2013-04-05 06:51:00,
2013-04-05 00:56:00,39.1,28.7,30.00,WSW,245,0.0,2.0,66,0.00,,,0.00,WeatherCatV1.14B232,2013-04-05 06:56:00,
2013-04-05 01:01:00,38.7,28.0,30.00,East,93,0.0,1.0,65,0.00,,,0.00,WeatherCatV1.14B232,2013-04-05 07:01:00,
2013-04-05 01:06:00,38.8,28.1,30.00,South,171,0.0,2.0,65,0.00,,,0.00,WeatherCatV1.14B232,2013-04-05 07:06:00,
2013-04-05 01:11:00,38.8,28.1,30.00,SSE,161,0.0,0.0,65,0.00,,,0.00,WeatherCatV1.14B232,2013-04-05 07:11:00,
2013-04-05 01:16:00,38.7,28.3,29.99,SW,235,0.0,1.0,66,0.00,,,0.00,WeatherCatV1.14B232,2013-04-05 07:16:00,
2013-04-05 01:21:00,38.6,27.9,29.99,NE,54,0.0,1.0,65,0.00,,,0.00,WeatherCatV1.14B232,2013-04-05 07:21:00,
2013-04-05 01:26:00,38.7,28.0,29.99,ESE,108,2.0,2.0,65,0.00,,,0.00,WeatherCatV1.14B232,2013-04-05 07:26:00,
2013-04-05 01:31:00,38.7,29.4,29.99,SE,134,0.0,2.0,69,0.00,,,0.00,WeatherCatV1.14B232,2013-04-05 07:31:00,
2013-04-05 01:36:00,38.5,28.9,29.99,East,100,1.0,1.0,68,0.00,,,0.00,WeatherCatV1.14B232,2013-04-05 07:36:00,
2013-04-05 01:41:00,38.5,28.9,29.99,ESE,108,0.0,2.0,68,0.00,,,0.00,WeatherCatV1.14B232,2013-04-05 07:41:00,
2013-04-05 01:46:00,38.5,29.2,29.99,West,260,1.0,2.0,69,0.00,,,0.00,WeatherCatV1.14B232,2013-04-05 07:46:00,
2013-04-05 01:51:00,38.2,28.2,29.99,SSW,211,0.0,1.0,67,0.00,,,0.00,WeatherCatV1.14B232,2013-04-05 07:51:00,
2013-04-05 01:56:00,38.0,28.0,29.99,ESE,115,1.0,1.0,67,0.00,,,0.00,WeatherCatV1.14B232,2013-04-05 07:56:00,
2013-04-05 02:01:00,38.2,28.2,29.99,SW,224,2.0,2.0,67,0.00,,,0.00,WeatherCatV1.14B232,2013-04-05 08:01:00,
2013-04-05 02:06:00,38.0,28.4,29.99,West,266,0.0,1.0,68,0.00,,,0.00,WeatherCatV1.14B232,2013-04-05 08:06:00,
2013-04-05 02:11:00,37.9,28.7,29.98,South,187,0.0,1.0,69,0.00,,,0.00,WeatherCatV1.14B232,2013-04-05 08:11:00,
2013-04-05 02:16:00,37.5,28.3,29.99,South,176,1.0,2.0,69,0.00,,,0.00,WeatherCatV1.14B232,2013-04-05 08:16:00,
2013-04-05 02:21:00,37.5,28.3,29.99,SE,138,1.0,4.0,69,0.00,,,0.00,WeatherCatV1.14B232,2013-04-05 08:21:00,
2013-04-05 02:26:00,37.7,28.1,29.98,WSW,242,1.0,1.0,68,0.00,,,0.00,WeatherCatV1.14B232,2013-04-05 08:26:00,
2013-04-05 02:31:00,37.6,28.4,29.98,NE,54,0.0,1.0,69,0.00,,,0.00,WeatherCatV1.14B232,2013-04-05 08:31:00,
2013-04-05 02:36:00,37.5,28.6,29.98,SW,231,2.0,3.0,70,0.00,,,0.00,WeatherCatV1.14B232,2013-04-05 08:36:00,
2013-04-05 02:41:00,37.4,28.9,29.98,SE,146,0.0,0.0,71,0.00,,,0.00,WeatherCatV1.14B232,2013-04-05 08:41:00,
2013-04-05 02:46:00,37.2,28.7,29.98,WSW,257,0.0,1.0,71,0.00,,,0.00,WeatherCatV1.14B232,2013-04-05 08:46:00,
2013-04-05 02:51:00,37.1,28.6,29.98,SSW,203,0.0,1.0,71,0.00,,,0.00,WeatherCatV1.14B232,2013-04-05 08:51:00,
2013-04-05 02:56:00,36.8,29.0,29.97,SW,229,0.0,1.0,73,0.00,,,0.00,WeatherCatV1.14B232,2013-04-05 08:56:00,
2013-04-05 03:01:00,36.4,28.6,29.97,SW,236,2.0,2.0,73,0.00,,,0.00,WeatherCatV1.14B232,2013-04-05 09:01:00,
2013-04-05 03:06:00,36.3,28.8,29.97,WSW,256,0.0,0.0,74,0.00,,,0.00,WeatherCatV1.14B232,2013-04-05 09:06:00,
2013-04-05 03:11:00,36.1,28.0,29.97,North,8,1.0,1.0,72,0.00,,,0.00,WeatherCatV1.14B232,2013-04-05 09:11:00,
2013-04-05 03:16:00,35.9,28.1,29.97,NNE,30,1.0,1.0,73,0.00,,,0.00,WeatherCatV1.14B232,2013-04-05 09:16:00,
2013-04-05 03:21:00,35.6,27.8,29.97,WNW,295,0.0,0.0,73,0.00,,,0.00,WeatherCatV1.14B232,2013-04-05 09:21:00,
2013-04-05 03:26:00,35.4,27.6,29.97,SSE,158,2.0,2.0,73,0.00,,,0.00,WeatherCatV1.14B232,2013-04-05 09:26:00,
2013-04-05 03:31:00,35.2,27.4,29.97,SSE,153,0.0,0.0,73,0.00,,,0.00,WeatherCatV1.14B232,2013-04-05 09:31:00,
2013-04-05 03:36:00,34.9,28.1,29.97,SW,228,0.0,2.0,76,0.00,,,0.00,WeatherCatV1.14B232,2013-04-05 09:36:00,
2013-04-05 03:41:00,34.7,26.9,29.97,North,354,1.0,1.0,73,0.00,,,0.00,WeatherCatV1.14B232,2013-04-05 09:41:00,
2013-04-05 03:46:00,34.9,26.5,29.97,NW,319,0.0,1.0,71,0.00,,,0.00,WeatherCatV1.14B232,2013-04-05 09:46:00,
2013-04-05 03:51:00,35.2,26.8,29.97,SW,214,2.0,4.0,71,0.00,,,0.00,WeatherCatV1.14B232,2013-04-05 09:51:00,
2013-04-05 03:56:00,35.1,27.0,29.97,South,180,0.0,0.0,72,0.00,,,0.00,WeatherCatV1.14B232,2013-04-05 09:56:00,
2013-04-05 04:01:00,34.8,27.7,29.97,SSE,167,1.0,1.0,75,0.00,,,0.00,WeatherCatV1.14B232,2013-04-05 10:01:00,
2013-04-05 04:06:00,34.4,27.6,29.97,South,183,1.0,1.0,76,0.00,,,0.00,WeatherCatV1.14B232,2013-04-05 10:06:00,
2013-04-05 04:11:00,34.3,27.5,29.96,East,95,0.0,2.0,76,0.00,,,0.00,WeatherCatV1.14B232,2013-04-05 10:11:00,
2013-04-05 04:16:00,34.2,27.4,29.96,East,95,0.0,0.0,76,0.00,,,0.00,WeatherCatV1.14B232,2013-04-05 10:16:00,
2013-04-05 04:21:00,33.9,27.8,29.96,South,169,2.0,2.0,78,0.00,,,0.00,WeatherCatV1.14B232,2013-04-05 10:21:00,
2013-04-05 04:26:00,33.6,27.5,29.96,SE,124,1.0,3.0,78,0.00,,,0.00,WeatherCatV1.14B232,2013-04-05 10:26:00,
2013-04-05 04:31:00,33.6,27.2,29.96,SSE,156,1.0,2.0,77,0.00,,,0.00,WeatherCatV1.14B232,2013-04-05 10:31:00,
2013-04-05 04:36:00,33.5,27.1,29.96,SSE,156,1.0,2.0,77,0.00,,,0.00,WeatherCatV1.14B232,2013-04-05 10:36:00,
2013-04-05 04:41:00,33.5,27.1,29.96,ESE,117,1.0,2.0,77,0.00,,,0.00,WeatherCatV1.14B232,2013-04-05 10:41:00,
2013-04-05 04:46:00,33.7,27.0,29.96,SE,143,0.0,1.0,76,0.00,,,0.00,WeatherCatV1.14B232,2013-04-05 10:46:00,
2013-04-05 04:51:00,33.5,27.1,29.96,East,101,1.0,1.0,77,0.00,,,0.00,WeatherCatV1.14B232,2013-04-05 10:51:00,
2013-04-05 04:56:00,33.6,27.2,29.96,WSW,242,1.0,1.0,77,0.00,,,0.00,WeatherCatV1.14B232,2013-04-05 10:56:00,
2013-04-05 05:01:00,33.3,27.2,29.96,SW,214,1.0,2.0,78,0.00,,,0.00,WeatherCatV1.14B232,2013-04-05 11:01:00,
2013-04-05 05:06:00,33.1,27.0,29.96,West,263,0.0,0.0,78,0.00,,,0.00,WeatherCatV1.14B232,2013-04-05 11:06:00,
2013-04-05 05:11:00,32.9,26.5,29.96,West,263,0.0,0.0,77,0.00,,,0.00,WeatherCatV1.14B232,2013-04-05 11:11:00,
2013-04-05 05:16:00,33.0,26.6,29.96,SW,222,2.0,2.0,77,0.00,,,0.00,WeatherCatV1.14B232,2013-04-05 11:16:00,
2013-04-05 05:21:00,32.7,26.9,29.95,SE,124,1.0,1.0,79,0.00,,,0.00,WeatherCatV1.14B232,2013-04-05 11:21:00,
2013-04-05 05:26:00,32.4,26.6,29.95,SSW,200,1.0,2.0,79,0.00,,,0.00,WeatherCatV1.14B232,2013-04-05 11:26:00,
2013-04-05 05:31:00,32.4,26.6,29.95,ESE,111,2.0,2.0,79,0.00,,,0.00,WeatherCatV1.14B232,2013-04-05 11:31:00,
2013-04-05 05:36:00,32.5,26.4,29.95,South,181,2.0,4.0,78,0.00,,,0.00,WeatherCatV1.14B232,2013-04-05 11:36:00,
2013-04-05 05:41:00,32.5,26.4,29.95,SW,228,0.0,4.0,78,0.00,,,0.00,WeatherCatV1.14B232,2013-04-05 11:41:00,
2013-04-05 05:46:00,32.5,26.7,29.95,SSE,160,0.0,6.0,79,0.00,,,0.00,WeatherCatV1.14B232,2013-04-05 11:46:00,
2013-04-05 05:51:00,32.5,26.4,29.95,NE,40,2.0,2.0,78,0.00,,,0.00,WeatherCatV1.14B232,2013-04-05 11:51:00,
2013-04-05 05:56:00,32.5,26.4,29.95,East,81,3.0,3.0,78,0.00,,,0.00,WeatherCatV1.14B232,2013-04-05 11:56:00,
2013-04-05 06:01:00,32.7,26.9,29.94,East,79,1.0,1.0,79,0.00,,,0.00,WeatherCatV1.14B232,2013-04-05 12:01:00,
2013-04-05 06:06:00,32.4,26.6,29.94,ENE,67,0.0,3.0,79,0.00,,,0.00,WeatherCatV1.14B232,2013-04-05 12:06:00,
2013-04-05 06:11:00,32.2,26.1,29.94,NE,42,0.0,1.0,78,0.00,,,0.00,WeatherCatV1.14B232,2013-04-05 12:11:00,
2013-04-05 06:16:00,32.4,26.3,29.94,SW,236,3.0,3.0,78,0.00,,,0.00,WeatherCatV1.14B232,2013-04-05 12:16:00,
2013-04-05 06:21:00,32.4,26.6,29.94,SE,136,1.0,2.0,79,0.00,,,0.00,WeatherCatV1.14B232,2013-04-05 12:21:00,
2013-04-05 06:26:00,32.5,26.4,29.95,SW,224,0.0,6.0,78,0.00,,,0.00,WeatherCatV1.14B232,2013-04-05 12:26:00,
2013-04-05 06:31:00,32.5,26.4,29.94,NE,43,2.0,2.0,78,0.00,,,0.00,WeatherCatV1.14B232,2013-04-05 12:31:00,
2013-04-05 06:36:00,32.4,26.3,29.95,SSE,148,0.0,0.0,78,0.00,,,0.00,WeatherCatV1.14B232,2013-04-05 12:36:00,
2013-04-05 06:41:00,32.4,26.3,29.95,SSW,197,2.0,3.0,78,0.00,,,0.00,WeatherCatV1.14B232,2013-04-05 12:41:00,
2013-04-05 06:46:00,32.2,26.1,29.95,SSE,156,0.0,2.0,78,0.00,,,0.00,WeatherCatV1.14B232,2013-04-05 12:46:00,
2013-04-05 06:51:00,32.1,26.0,29.95,SE,146,1.0,3.0,78,0.00,,,0.00,WeatherCatV1.14B232,2013-04-05 12:51:00,
2013-04-05 06:56:00,32.1,26.6,29.95,WSW,240,0.0,0.0,80,0.00,,,0.00,WeatherCatV1.14B232,2013-04-05 12:56:00,
2013-04-05 07:01:00,32.1,26.3,29.95,SW,226,0.0,1.0,79,0.00,,,0.00,WeatherCatV1.14B232,2013-04-05 13:01:00,
2013-04-05 07:06:00,32.1,26.0,29.95,ESE,119,0.0,1.0,78,0.00,,,0.00,WeatherCatV1.14B232,2013-04-05 13:06:00,
2013-04-05 07:11:00,32.3,26.2,29.94,West,259,0.0,0.0,78,0.00,,,0.00,WeatherCatV1.14B232,2013-04-05 13:11:00,
2013-04-05 07:16:00,32.6,26.8,29.95,West,264,0.0,2.0,79,0.00,,,0.00,WeatherCatV1.14B232,2013-04-05 13:16:00,
2013-04-05 07:21:00,32.9,26.8,29.95,NNE,26,0.0,0.0,78,0.00,,,0.00,WeatherCatV1.14B232,2013-04-05 13:21:00,
2013-04-05 07:26:00,33.2,26.5,29.94,NE,49,0.0,1.0,76,0.00,,,0.00,WeatherCatV1.14B232,2013-04-05 13:26:00,
2013-04-05 07:31:00,33.7,27.6,29.95,South,170,0.0,0.0,78,0.00,,,0.00,WeatherCatV1.14B232,2013-04-05 13:31:00,
2013-04-05 07:36:00,34.5,27.7,29.94,NE,47,1.0,2.0,76,0.00,,,0.00,WeatherCatV1.14B232,2013-04-05 13:36:00,
2013-04-05 07:41:00,35.6,28.1,29.94,WSW,245,2.0,2.0,74,0.00,,,0.00,WeatherCatV1.14B232,2013-04-05 13:41:00,
2013-04-05 07:46:00,36.4,27.9,29.94,SE,130,0.0,1.0,71,0.00,,,0.00,WeatherCatV1.14B232,2013-04-05 13:46:00,
2013-04-05 07:51:00,38.3,28.3,29.94,East,97,2.0,2.0,67,0.00,,,0.00,WeatherCatV1.14B232,2013-04-05 13:51:00,
2013-04-05 07:56:00,39.6,27.7,29.94,East,89,0.0,1.0,62,0.00,,,0.00,WeatherCatV1.14B232,2013-04-05 13:56:00,
2013-04-05 08:01:00,41.0,28.2,29.94,SE,131,1.0,1.0,60,0.00,,,0.00,WeatherCatV1.14B232,2013-04-05 14:01:00,
2013-04-05 08:06:00,41.5,28.7,29.93,SE,145,0.0,1.0,60,0.00,,,0.00,WeatherCatV1.14B232,2013-04-05 14:06:00,
2013-04-05 08:11:00,41.6,28.3,29.93,SSE,160,0.0,2.0,59,0.00,,,0.00,WeatherCatV1.14B232,2013-04-05 14:11:00,
2013-04-05 08:16:00,41.4,28.2,29.93,SE,124,0.0,1.0,59,0.00,,,0.00,WeatherCatV1.14B232,2013-04-05 14:16:00,
2013-04-05 08:21:00,41.3,28.1,29.93,SSE,159,1.0,1.0,59,0.00,,,0.00,WeatherCatV1.14B232,2013-04-05 14:21:00,
2013-04-05 08:26:00,41.3,27.7,29.93,WSW,243,0.0,1.0,58,0.00,,,0.00,WeatherCatV1.14B232,2013-04-05 14:26:00,
2013-04-05 08:31:00,41.4,27.7,29.92,SE,136,1.0,1.0,58,0.00,,,0.00,WeatherCatV1.14B232,2013-04-05 14:31:00,
2013-04-05 08:36:00,41.7,28.0,29.92,SW,224,1.0,1.0,58,0.00,,,0.00,WeatherCatV1.14B232,2013-04-05 14:36:00,
2013-04-05 08:41:00,41.9,29.0,29.92,West,275,0.0,1.0,60,0.00,,,0.00,WeatherCatV1.14B232,2013-04-05 14:41:00,
2013-04-05 08:46:00,41.9,28.6,29.92,SSE,153,2.0,2.0,59,0.00,,,0.00,WeatherCatV1.14B232,2013-04-05 14:46:00,
2013-04-05 08:51:00,42.2,28.1,29.92,East,94,1.0,1.0,57,0.00,,,0.00,WeatherCatV1.14B232,2013-04-05 14:51:00,
2013-04-05 08:56:00,42.5,27.9,29.92,ESE,103,0.0,1.0,56,0.00,,,0.00,WeatherCatV1.14B232,2013-04-05 14:56:00,
2013-04-05 09:01:00,42.9,27.9,29.92,East,81,0.0,1.0,55,0.00,,,0.00,WeatherCatV1.14B232,2013-04-05 15:01:00,
2013-04-05 09:06:00,43.1,27.6,29.92,SW,225,0.0,1.0,54,0.00,,,0.00,WeatherCatV1.14B232,2013-04-05 15:06:00,
2013-04-05 09:11:00,43.3,27.3,29.91,North,357,0.0,2.0,53,0.00,,,0.00,WeatherCatV1.14B232,2013-04-05 15:11:00,
2013-04-05 09:16:00,43.5,27.1,29.91,NNW,346,0.0,3.0,52,0.00,,,0.00,WeatherCatV1.14B232,2013-04-05 15:16:00,
2013-04-05 09:21:00,43.9,27.4,29.91,SW,231,0.0,1.0,52,0.00,,,0.00,WeatherCatV1.14B232,2013-04-05 15:21:00,
2013-04-05 09:26:00,44.1,27.6,29.91,SW,224,1.0,1.0,52,0.00,,,0.00,WeatherCatV1.14B232,2013-04-05 15:26:00,
2013-04-05 09:31:00,44.3,27.3,29.90,ENE,71,0.0,0.0,51,0.00,,,0.00,WeatherCatV1.14B232,2013-04-05 15:31:00,
2013-04-05 09:36:00,44.6,27.6,29.90,NE,52,0.0,0.0,51,0.00,,,0.00,WeatherCatV1.14B232,2013-04-05 15:36:00,
2013-04-05 09:41:00,44.9,27.4,29.90,WNW,291,2.0,2.0,50,0.00,,,0.00,WeatherCatV1.14B232,2013-04-05 15:41:00,
2013-04-05 09:46:00,45.1,27.6,29.90,WNW,288,1.0,5.0,50,0.00,,,0.00,WeatherCatV1.14B232,2013-04-05 15:46:00,
2013-04-05 09:51:00,45.4,27.4,29.89,ESE,118,1.0,2.0,49,0.00,,,0.00,WeatherCatV1.14B232,2013-04-05 15:51:00,
2013-04-05 09:56:00,46.1,27.5,29.89,SSE,158,0.0,0.0,48,0.00,,,0.00,WeatherCatV1.14B232,2013-04-05 15:56:00,
2013-04-05 10:01:00,46.9,28.2,29.88,ENE,63,1.0,3.0,48,0.00,,,0.00,WeatherCatV1.14B232,2013-04-05 16:01:00,
2013-04-05 10:06:00,47.3,27.0,29.87,South,173,3.0,5.0,45,0.00,,,0.00,WeatherCatV1.14B232,2013-04-05 16:06:00,
2013-04-05 10:11:00,47.9,27.0,29.86,SE,131,1.0,2.0,44,0.00,,,0.00,WeatherCatV1.14B232,2013-04-05 16:11:00,
2013-04-05 10:16:00,48.5,27.6,29.87,SE,135,1.0,1.0,44,0.00,,,0.00,WeatherCatV1.14B232,2013-04-05 16:16:00,
2013-04-05 10:21:00,49.0,27.5,29.86,ENE,78,3.0,4.0,43,0.00,,,0.00,WeatherCatV1.14B232,2013-04-05 16:21:00,
2013-04-05 10:26:00,49.6,26.9,29.86,NE,51,2.0,2.0,41,0.00,,,0.00,WeatherCatV1.14B232,2013-04-05 16:26:00,
2013-04-05 10:31:00,50.4,27.6,29.86,NE,41,2.0,4.0,41,0.00,,,0.00,WeatherCatV1.14B232,2013-04-05 16:31:00,
2013-04-05 10:36:00,50.8,27.4,29.85,ENE,58,4.0,5.0,40,0.00,,,0.00,WeatherCatV1.14B232,2013-04-05 16:36:00,
2013-04-05 10:41:00,51.8,28.3,29.86,SSE,150,0.0,4.0,40,0.00,,,0.00,WeatherCatV1.14B232,2013-04-05 16:41:00,
2013-04-05 10:46:00,53.7,29.3,29.85,ENE,73,1.0,5.0,39,0.00,,,0.00,WeatherCatV1.14B232,2013-04-05 16:46:00,
2013-04-05 10:51:00,55.0,29.9,29.84,ENE,57,9.0,9.0,38,0.00,,,0.00,WeatherCatV1.14B232,2013-04-05 16:51:00,
2013-04-05 10:56:00,56.3,27.6,29.84,West,280,6.0,11.0,33,0.00,,,0.00,WeatherCatV1.14B232,2013-04-05 16:56:00,
2013-04-05 11:01:00,59.9,24.9,29.83,NNW,348,5.0,11.0,26,0.00,,,0.00,WeatherCatV1.14B232,2013-04-05 17:01:00,
2013-04-05 11:06:00,61.8,25.6,29.83,SW,219,8.0,11.0,25,0.00,,,0.00,WeatherCatV1.14B232,2013-04-05 17:06:00,
2013-04-05 11:11:00,62.3,21.9,29.83,SW,226,13.0,15.0,21,0.00,,,0.00,WeatherCatV1.14B232,2013-04-05 17:11:00,
2013-04-05 11:16:00,62.2,22.9,29.83,South,172,12.0,12.0,22,0.00,,,0.00,WeatherCatV1.14B232,2013-04-05 17:16:00,
2013-04-05 11:21:00,62.0,21.6,29.83,SW,232,13.0,25.0,21,0.00,,,0.00,WeatherCatV1.14B232,2013-04-05 17:21:00,
2013-04-05 11:26:00,62.4,23.1,29.82,WSW,253,3.0,10.0,22,0.00,,,0.00,WeatherCatV1.14B232,2013-04-05 17:26:00,
2013-04-05 11:31:00,62.7,23.3,29.82,SSW,211,6.0,8.0,22,0.00,,,0.00,WeatherCatV1.14B232,2013-04-05 17:31:00,
2013-04-05 11:36:00,62.6,22.1,29.81,SW,236,7.0,17.0,21,0.00,,,0.00,WeatherCatV1.14B232,2013-04-05 17:36:00,
2013-04-05 11:41:00,63.2,22.6,29.81,South,169,6.0,11.0,21,0.00,,,0.00,WeatherCatV1.14B232,2013-04-05 17:41:00,
2013-04-05 11:46:00,63.7,21.9,29.81,SW,236,6.0,9.0,20,0.00,,,0.00,WeatherCatV1.14B232,2013-04-05 17:46:00,
2013-04-05 11:51:00,64.1,22.2,29.81,SW,219,15.0,23.0,20,0.00,,,0.00,WeatherCatV1.14B232,2013-04-05 17:51:00,
2013-04-05 11:56:00,63.9,22.0,29.81,SW,232,10.0,20.0,20,0.00,,,0.00,WeatherCatV1.14B232,2013-04-05 17:56:00,
2013-04-05 12:01:00,64.2,22.3,29.81,South,177,5.0,14.0,20,0.00,,,0.00,WeatherCatV1.14B232,2013-04-05 18:01:00,
2013-04-05 12:06:00,64.3,23.5,29.80,SSE,164,1.0,7.0,21,0.00,,,0.00,WeatherCatV1.14B232,2013-04-05 18:06:00,
2013-04-05 12:11:00,64.3,23.5,29.80,South,179,7.0,17.0,21,0.00,,,0.00,WeatherCatV1.14B232,2013-04-05 18:11:00,
2013-04-05 12:16:00,63.6,23.0,29.80,WSW,240,2.0,9.0,21,0.00,,,0.00,WeatherCatV1.14B232,2013-04-05 18:16:00,
2013-04-05 12:21:00,63.2,23.7,29.80,NNW,348,1.0,5.0,22,0.00,,,0.00,WeatherCatV1.14B232,2013-04-05 18:21:00,
2013-04-05 12:26:00,62.8,24.5,29.79,WNW,301,7.0,9.0,23,0.00,,,0.00,WeatherCatV1.14B232,2013-04-05 18:26:00,
2013-04-05 12:31:00,62.2,22.9,29.79,ESE,103,5.0,12.0,22,0.00,,,0.00,WeatherCatV1.14B232,2013-04-05 18:31:00,
2013-04-05 12:36:00,61.9,22.6,29.79,WSW,252,6.0,10.0,22,0.00,,,0.00,WeatherCatV1.14B232,2013-04-05 18:36:00,
2013-04-05 12:41:00,61.8,23.6,29.78,South,184,10.0,14.0,23,0.00,,,0.00,WeatherCatV1.14B232,2013-04-05 18:41:00,
2013-04-05 12:46:00,61.9,23.7,29.78,SW,232,10.0,17.0,23,0.00,,,0.00,WeatherCatV1.14B232,2013-04-05 18:46:00,
2013-04-05 12:51:00,62.4,24.1,29.78,SE,133,6.0,12.0,23,0.00,,,0.00,WeatherCatV1.14B232,2013-04-05 18:51:00,
2013-04-05 12:56:00,63.1,23.6,29.78,SSE,152,9.0,21.0,22,0.00,,,0.00,WeatherCatV1.14B232,2013-04-05 18:56:00,
2013-04-05 13:01:00,62.9,24.5,29.77,SSW,197,6.0,15.0,23,0.00,,,0.00,WeatherCatV1.14B232,2013-04-05 19:01:00,
2013-04-05 13:06:00,63.0,24.6,29.77,SW,236,15.0,16.0,23,0.00,,,0.00,WeatherCatV1.14B232,2013-04-05 19:06:00,
2013-04-05 13:11:00,62.8,24.5,29.77,SW,228,14.0,15.0,23,0.00,,,0.00,WeatherCatV1.14B232,2013-04-05 19:11:00,
2013-04-05 13:16:00,62.8,24.5,29.77,WSW,256,7.0,22.0,23,0.00,,,0.00,WeatherCatV1.14B232,2013-04-05 19:16:00,
2013-04-05 13:21:00,62.8,24.5,29.77,SW,224,10.0,19.0,23,0.00,,,0.00,WeatherCatV1.14B232,2013-04-05 19:21:00,
2013-04-05 13:26:00,63.0,24.6,29.77,SW,224,6.0,9.0,23,0.00,,,0.00,WeatherCatV1.14B232,2013-04-05 19:26:00,
2013-04-05 13:31:00,63.4,25.0,29.77,ENE,74,4.0,14.0,23,0.00,,,0.00,WeatherCatV1.14B232,2013-04-05 19:31:00,
2013-04-05 13:36:00,63.6,25.1,29.76,SW,222,5.0,16.0,23,0.00,,,0.00,WeatherCatV1.14B232,2013-04-05 19:36:00,
2013-04-05 13:41:00,63.5,22.9,29.77,West,280,7.0,19.0,21,0.00,,,0.00,WeatherCatV1.14B232,2013-04-05 19:41:00,
2013-04-05 13:46:00,63.8,24.2,29.76,SW,226,7.0,21.0,22,0.00,,,0.00,WeatherCatV1.14B232,2013-04-05 19:46:00,
2013-04-05 13:51:00,64.1,24.5,29.75,SW,221,14.0,15.0,22,0.00,,,0.00,WeatherCatV1.14B232,2013-04-05 19:51:00,
2013-04-05 13:56:00,64.8,25.1,29.75,West,273,15.0,15.0,22,0.00,,,0.00,WeatherCatV1.14B232,2013-04-05 19:56:00,
2013-04-05 14:01:00,64.4,23.6,29.75,SE,138,7.0,22.0,21,0.00,,,0.00,WeatherCatV1.14B232,2013-04-05 20:01:00,
2013-04-05 14:06:00,64.9,24.0,29.75,SW,232,7.0,14.0,21,0.00,,,0.00,WeatherCatV1.14B232,2013-04-05 20:06:00,
2013-04-05 14:11:00,65.0,23.0,29.75,WSW,243,4.0,15.0,20,0.00,,,0.00,WeatherCatV1.14B232,2013-04-05 20:11:00,
2013-04-05 14:16:00,64.7,23.9,29.73,SE,124,13.0,20.0,21,0.00,,,0.00,WeatherCatV1.14B232,2013-04-05 20:16:00,
2013-04-05 14:21:00,64.9,24.0,29.74,South,173,9.0,22.0,21,0.00,,,0.00,WeatherCatV1.14B232,2013-04-05 20:21:00,
2013-04-05 14:26:00,65.2,25.4,29.73,SE,131,2.0,5.0,22,0.00,,,0.00,WeatherCatV1.14B232,2013-04-05 20:26:00,
2013-04-05 14:31:00,65.4,23.3,29.73,WNW,285,13.0,20.0,20,0.00,,,0.00,WeatherCatV1.14B232,2013-04-05 20:31:00,
2013-04-05 14:36:00,65.2,25.4,29.73,WSW,246,3.0,16.0,22,0.00,,,0.00,WeatherCatV1.14B232,2013-04-05 20:36:00,
2013-04-05 14:41:00,64.6,23.8,29.72,WNW,283,7.0,12.0,21,0.00,,,0.00,WeatherCatV1.14B232,2013-04-05 20:41:00,
2013-04-05 14:46:00,64.1,24.5,29.73,SW,219,4.0,23.0,22,0.00,,,0.00,WeatherCatV1.14B232,2013-04-05 20:46:00,
2013-04-05 14:51:00,63.5,24.0,29.73,SSE,158,13.0,22.0,22,0.00,,,0.00,WeatherCatV1.14B232,2013-04-05 20:51:00,
2013-04-05 14:56:00,63.7,25.2,29.73,SW,231,16.0,19.0,23,0.00,,,0.00,WeatherCatV1.14B232,2013-04-05 20:56:00,
2013-04-05 15:01:00,64.5,24.8,29.72,SW,215,9.0,19.0,22,0.00,,,0.00,WeatherCatV1.14B232,2013-04-05 21:01:00,
2013-04-05 15:06:00,64.7,25.0,29.72,SSE,160,12.0,24.0,22,0.00,,,0.00,WeatherCatV1.14B232,2013-04-05 21:06:00,
2013-04-05 15:11:00,64.7,25.0,29.72,WSW,245,8.0,21.0,22,0.00,,,0.00,WeatherCatV1.14B232,2013-04-05 21:11:00,
2013-04-05 15:16:00,64.8,24.0,29.71,SW,226,15.0,20.0,21,0.00,,,0.00,WeatherCatV1.14B232,2013-04-05 21:16:00,
2013-04-05 15:21:00,65.0,25.2,29.71,SSE,165,4.0,11.0,22,0.00,,,0.00,WeatherCatV1.14B232,2013-04-05 21:21:00,
2013-04-05 15:26:00,64.0,24.4,29.71,NNW,345,6.0,17.0,22,0.00,,,0.00,WeatherCatV1.14B232,2013-04-05 21:26:00,
2013-04-05 15:31:00,63.1,24.7,29.71,SSE,168,11.0,12.0,23,0.00,,,0.00,WeatherCatV1.14B232,2013-04-05 21:31:00,
2013-04-05 15:36:00,62.8,25.5,29.72,East,81,9.0,12.0,24,0.00,,,0.00,WeatherCatV1.14B232,2013-04-05 21:36:00,
2013-04-05 15:41:00,61.9,25.7,29.74,West,274,5.0,32.0,25,0.00,,,0.00,WeatherCatV1.14B232,2013-04-05 21:41:00,
2013-04-05 15:46:00,59.6,28.1,29.74,SW,229,19.0,27.0,30,0.00,,,0.00,WeatherCatV1.14B232,2013-04-05 21:46:00,
2013-04-05 15:51:00,59.1,26.9,29.73,ESE,111,10.0,13.0,29,0.00,,,0.00,WeatherCatV1.14B232,2013-04-05 21:51:00,
2013-04-05 15:56:00,59.9,28.4,29.73,West,262,21.0,21.0,30,0.00,,,0.00,WeatherCatV1.14B232,2013-04-05 21:56:00,
2013-04-05 16:01:00,59.7,28.2,29.74,WNW,294,2.0,22.0,30,0.00,,,0.00,WeatherCatV1.14B232,2013-04-05 22:01:00,
2013-04-05 16:06:00,59.1,28.5,29.74,WSW,255,10.0,24.0,31,0.00,,,0.00,WeatherCatV1.14B232,2013-04-05 22:06:00,
2013-04-05 16:11:00,59.0,29.2,29.72,West,262,9.0,11.0,32,0.00,,,0.00,WeatherCatV1.14B232,2013-04-05 22:11:00,
2013-04-05 16:16:00,58.7,28.9,29.72,WNW,287,2.0,13.0,32,0.00,,,0.00,WeatherCatV1.14B232,2013-04-05 22:16:00,
2013-04-05 16:21:00,58.8,28.2,29.72,SW,229,5.0,9.0,31,0.00,,,0.00,WeatherCatV1.14B232,2013-04-05 22:21:00,
2013-04-05 16:26:00,59.0,28.4,29.72,NW,317,2.0,8.0,31,0.00,,,0.00,WeatherCatV1.14B232,2013-04-05 22:26:00,
2013-04-05 16:31:00,60.3,27.9,29.72,West,276,4.0,12.0,29,0.00,,,0.00,WeatherCatV1.14B232,2013-04-05 22:31:00,
2013-04-05 16:36:00,60.8,28.3,29.72,WSW,252,5.0,8.0,29,0.00,,,0.00,WeatherCatV1.14B232,2013-04-05 22:36:00,
2013-04-05 16:41:00,60.3,27.9,29.72,WNW,286,2.0,2.0,29,0.00,,,0.00,WeatherCatV1.14B232,2013-04-05 22:41:00,
2013-04-05 16:46:00,60.4,28.0,29.72,West,259,9.0,12.0,29,0.00,,,0.00,WeatherCatV1.14B232,2013-04-05 22:46:00,
2013-04-05 16:51:00,60.1,28.6,29.72,SSE,160,10.0,13.0,30,0.00,,,0.00,WeatherCatV1.14B232,2013-04-05 22:51:00,
2013-04-05 16:56:00,59.7,29.0,29.73,SSW,211,2.0,7.0,31,0.00,,,0.00,WeatherCatV1.14B232,2013-04-05 22:56:00,
2013-04-05 17:01:00,58.8,30.5,29.73,SSE,158,15.0,15.0,34,0.00,,,0.00,WeatherCatV1.14B232,2013-04-05 23:01:00,
2013-04-05 17:06:00,58.4,30.9,29.73,South,171,7.0,9.0,35,0.00,,,0.00,WeatherCatV1.14B232,2013-04-05 23:06:00,
2013-04-05 17:11:00,58.5,30.2,29.72,SW,229,4.0,10.0,34,0.00,,,0.00,WeatherCatV1.14B232,2013-04-05 23:11:00,
2013-04-05 17:16:00,58.6,31.0,29.72,SSW,198,6.0,7.0,35,0.00,,,0.00,WeatherCatV1.14B232,2013-04-05 23:16:00,
2013-04-05 17:21:00,58.6,30.3,29.71,South,178,7.0,9.0,34,0.00,,,0.00,WeatherCatV1.14B232,2013-04-05 23:21:00,
2013-04-05 17:26:00,58.6,30.3,29.72,SSE,154,3.0,4.0,34,0.00,,,0.00,WeatherCatV1.14B232,2013-04-05 23:26:00,
2013-04-05 17:31:00,58.6,30.3,29.72,SE,143,2.0,3.0,34,0.00,,,0.00,WeatherCatV1.14B232,2013-04-05 23:31:00,
2013-04-05 17:36:00,58.5,29.5,29.72,ESE,103,3.0,5.0,33,0.00,,,0.00,WeatherCatV1.14B232,2013-04-05 23:36:00,
2013-04-05 17:41:00,58.6,30.3,29.72,SE,136,3.0,4.0,34,0.00,,,0.00,WeatherCatV1.14B232,2013-04-05 23:41:00,
2013-04-05 17:46:00,58.5,30.9,29.71,South,183,17.0,19.0,35,0.00,,,0.00,WeatherCatV1.14B232,2013-04-05 23:46:00,
2013-04-05 17:51:00,57.0,31.6,29.72,SSE,166,8.0,15.0,38,0.00,,,0.00,WeatherCatV1.14B232,2013-04-05 23:51:00,
2013-04-05 17:56:00,56.4,32.4,29.72,WSW,250,5.0,13.0,40,0.00,,,0.00,WeatherCatV1.14B232,2013-04-05 23:56:00,
2013-04-05 18:01:00,55.9,32.5,29.72,SW,235,2.0,13.0,41,0.00,,,0.00,WeatherCatV1.14B232,2013-04-06 00:01:00,
2013-04-05 18:06:00,55.9,31.9,29.72,SW,233,4.0,5.0,40,0.00,,,0.00,WeatherCatV1.14B232,2013-04-06 00:06:00,
2013-04-05 18:11:00,56.0,32.0,29.72,SSE,167,3.0,6.0,40,0.00,,,0.00,WeatherCatV1.14B232,2013-04-06 00:11:00,
2013-04-05 18:16:00,56.2,30.9,29.73,WSW,257,3.0,5.0,38,0.00,,,0.00,WeatherCatV1.14B232,2013-04-06 00:16:00,
2013-04-05 18:21:00,56.2,32.8,29.75,NNW,338,12.0,12.0,41,0.00,,,0.00,WeatherCatV1.14B232,2013-04-06 00:21:00,
2013-04-05 18:26:00,53.9,35.2,29.77,North,350,18.0,22.0,49,0.00,,,0.00,WeatherCatV1.14B232,2013-04-06 00:26:00,
2013-04-05 18:31:00,51.5,37.2,29.80,North,9,22.0,22.0,58,0.00,,,0.00,WeatherCatV1.14B232,2013-04-06 00:31:00,
2013-04-05 18:36:00,48.8,38.7,29.82,North,5,15.0,19.0,68,0.00,,,0.00,WeatherCatV1.14B232,2013-04-06 00:36:00,
2013-04-05 18:41:00,46.9,38.7,29.82,NW,318,15.0,20.0,73,0.00,,,0.01,WeatherCatV1.14B232,2013-04-06 00:41:00,
2013-04-05 18:46:00,45.7,39.6,29.81,NNW,332,4.0,16.0,79,0.13,,,0.02,WeatherCatV1.14B232,2013-04-06 00:46:00,
2013-04-05 18:51:00,45.0,39.8,29.82,NNW,330,8.0,9.0,82,0.06,,,0.02,WeatherCatV1.14B232,2013-04-06 00:51:00,
2013-04-05 18:56:00,44.7,39.5,29.82,WNW,284,4.0,8.0,82,0.04,,,0.02,WeatherCatV1.14B232,2013-04-06 00:56:00,
2013-04-05 19:02:00,44.6,39.8,29.82,West,273,2.0,4.0,83,0.00,,,0.02,WeatherCatV1.14B232,2013-04-06 01:02:00,
2013-04-05 19:06:00,44.5,39.7,29.83,WSW,257,6.0,6.0,83,0.00,,,0.02,WeatherCatV1.14B232,2013-04-06 01:06:00,
2013-04-05 19:12:00,44.5,39.4,29.83,West,276,1.0,4.0,82,0.00,,,0.02,WeatherCatV1.14B232,2013-04-06 01:12:00,
2013-04-05 19:17:00,44.6,39.1,29.83,WSW,252,5.0,5.0,81,0.00,,,0.02,WeatherCatV1.14B232,2013-04-06 01:17:00,
2013-04-05 19:22:00,44.7,39.5,29.82,WNW,293,2.0,3.0,82,0.00,,,0.02,WeatherCatV1.14B232,2013-04-06 01:22:00,
2013-04-05 19:27:00,44.9,39.7,29.82,NNW,330,2.0,2.0,82,0.00,,,0.02,WeatherCatV1.14B232,2013-04-06 01:27:00,
2013-04-05 19:32:00,45.0,39.8,29.83,SE,143,1.0,2.0,82,0.00,,,0.02,WeatherCatV1.14B232,2013-04-06 01:32:00,
2013-04-05 19:37:00,45.0,39.8,29.84,WSW,248,5.0,6.0,82,0.00,,,0.02,WeatherCatV1.14B232,2013-04-06 01:37:00,
2013-04-05 19:42:00,45.0,39.5,29.83,WSW,242,4.0,6.0,81,0.00,,,0.02,WeatherCatV1.14B232,2013-04-06 01:42:00,
2013-04-05 19:47:00,45.0,39.5,29.83,SW,225,4.0,6.0,81,0.00,,,0.02,WeatherCatV1.14B232,2013-04-06 01:47:00,
2013-04-05 19:52:00,44.9,39.7,29.83,SSE,167,2.0,8.0,82,0.00,,,0.02,WeatherCatV1.14B232,2013-04-06 01:52:00,
2013-04-05 19:57:00,44.8,40.0,29.84,WSW,237,6.0,7.0,83,0.00,,,0.02,WeatherCatV1.14B232,2013-04-06 01:57:00,
2013-04-05 20:02:00,44.8,40.0,29.83,WSW,243,4.0,5.0,83,0.00,,,0.02,WeatherCatV1.14B232,2013-04-06 02:02:00,
2013-04-05 20:07:00,44.8,40.0,29.83,WSW,243,2.0,9.0,83,0.00,,,0.02,WeatherCatV1.14B232,2013-04-06 02:07:00,
2013-04-05 20:12:00,44.9,40.1,29.84,SSW,212,3.0,4.0,83,0.00,,,0.02,WeatherCatV1.14B232,2013-04-06 02:12:00,
2013-04-05 20:17:00,44.9,40.4,29.84,SSE,151,5.0,5.0,84,0.00,,,0.02,WeatherCatV1.14B232,2013-04-06 02:17:00,
2013-04-05 20:22:00,45.0,40.2,29.84,ESE,119,3.0,3.0,83,0.00,,,0.02,WeatherCatV1.14B232,2013-04-06 02:22:00,
2013-04-05 20:27:00,44.9,40.4,29.84,ESE,112,2.0,5.0,84,0.00,,,0.02,WeatherCatV1.14B232,2013-04-06 02:27:00,
2013-04-05 20:31:00,44.9,40.4,29.84,East,96,3.0,3.0,84,0.00,,,0.02,WeatherCatV1.14B232,2013-04-06 02:31:00,
2013-04-05 20:36:00,44.9,40.7,29.84,North,1,0.0,1.0,85,0.00,,,0.02,WeatherCatV1.14B232,2013-04-06 02:36:00,
2013-04-05 20:41:00,44.7,40.2,29.84,SE,124,1.0,4.0,84,0.00,,,0.02,WeatherCatV1.14B232,2013-04-06 02:41:00,
2013-04-05 20:46:00,44.6,40.4,29.85,South,169,0.0,1.0,85,0.00,,,0.02,WeatherCatV1.14B232,2013-04-06 02:46:00,
2013-04-05 20:52:00,44.5,40.3,29.84,ESE,103,3.0,3.0,85,0.00,,,0.02,WeatherCatV1.14B232,2013-04-06 02:52:00,
2013-04-05 20:57:00,44.6,40.4,29.85,SE,143,1.0,3.0,85,0.00,,,0.02,WeatherCatV1.14B232,2013-04-06 02:57:00,
2013-04-05 21:02:00,44.6,40.7,29.85,East,91,1.0,1.0,86,0.00,,,0.02,WeatherCatV1.14B232,2013-04-06 03:02:00,
2013-04-05 21:07:00,44.6,39.8,29.86,East,94,0.0,2.0,83,0.00,,,0.02,WeatherCatV1.14B232,2013-04-06 03:07:00,
2013-04-05 21:12:00,44.7,39.9,29.87,NNE,30,1.0,3.0,83,0.00,,,0.02,WeatherCatV1.14B232,2013-04-06 03:12:00,
2013-04-05 21:17:00,44.8,40.3,29.87,NE,43,0.0,2.0,84,0.00,,,0.02,WeatherCatV1.14B232,2013-04-06 03:17:00,
2013-04-05 21:22:00,44.9,39.7,29.87,NE,46,1.0,4.0,82,0.00,,,0.02,WeatherCatV1.14B232,2013-04-06 03:22:00,
2013-04-05 21:27:00,44.9,39.7,29.87,North,0,4.0,4.0,82,0.00,,,0.02,WeatherCatV1.14B232,2013-04-06 03:27:00,
2013-04-05 21:32:00,44.8,40.3,29.87,NE,41,3.0,3.0,84,0.00,,,0.02,WeatherCatV1.14B232,2013-04-06 03:32:00,
2013-04-05 21:37:00,44.7,40.2,29.88,NNE,14,0.0,0.0,84,0.00,,,0.02,WeatherCatV1.14B232,2013-04-06 03:37:00,
2013-04-05 21:42:00,44.6,40.1,29.88,ENE,60,0.0,1.0,84,0.00,,,0.02,WeatherCatV1.14B232,2013-04-06 03:42:00,
2013-04-05 21:47:00,44.5,40.0,29.88,NNW,335,0.0,1.0,84,0.00,,,0.02,WeatherCatV1.14B232,2013-04-06 03:47:00,
2013-04-05 21:52:00,44.4,39.9,29.89,NNW,342,0.0,0.0,84,0.00,,,0.02,WeatherCatV1.14B232,2013-04-06 03:52:00,
2013-04-05 21:57:00,44.3,39.8,29.89,NW,320,1.0,1.0,84,0.00,,,0.02,WeatherCatV1.14B232,2013-04-06 03:57:00,
2013-04-05 22:00:00,44.3,40.4,29.89,NW,315,0.0,0.0,86,0.00,,,0.02,WeatherCatV1.14B232,2013-04-06 04:00:00,
2013-04-05 22:04:00,44.2,40.3,29.89,NW,315,0.0,0.0,86,0.00,,,0.02,WeatherCatV1.14B232,2013-04-06 04:04:00,
2013-04-05 22:09:00,44.0,40.1,29.89,NNW,332,1.0,1.0,86,0.00,,,0.02,WeatherCatV1.14B232,2013-04-06 04:09:00,
2013-04-05 22:11:00,44.0,40.1,29.89,WNW,295,0.0,1.0,86,0.00,,,0.02,WeatherCatV1.14B232,2013-04-06 04:11:00,
2013-04-05 22:16:00,44.0,39.8,29.90,NW,314,0.0,0.0,85,0.00,,,0.02,WeatherCatV1.14B232,2013-04-06 04:16:00,
2013-04-05 22:21:00,44.0,39.8,29.90,NW,305,1.0,1.0,85,0.00,,,0.02,WeatherCatV1.14B232,2013-04-06 04:21:00,
2013-04-05 22:24:00,44.0,39.8,29.90,NW,316,0.0,0.0,85,0.00,,,0.02,WeatherCatV1.14B232,2013-04-06 04:24:00,
2013-04-05 22:29:00,44.0,40.1,29.90,NW,316,0.0,0.0,86,0.00,,,0.02,WeatherCatV1.14B232,2013-04-06 04:29:00,
2013-04-05 22:34:00,43.8,39.9,29.90,North,1,2.0,2.0,86,0.00,,,0.02,WeatherCatV1.14B232,2013-04-06 04:34:00,
2013-04-05 22:39:00,43.7,40.1,29.90,North,5,1.0,2.0,87,0.00,,,0.02,WeatherCatV1.14B232,2013-04-06 04:39:00,
2013-04-05 22:44:00,43.6,40.3,29.90,WNW,294,0.0,1.0,88,0.00,,,0.02,WeatherCatV1.14B232,2013-04-06 04:44:00,
2013-04-05 22:49:00,43.5,40.2,29.90,WNW,290,0.0,0.0,88,0.00,,,0.02,WeatherCatV1.14B232,2013-04-06 04:49:00,
2013-04-05 22:54:00,43.3,40.0,29.90,WNW,290,0.0,0.0,88,0.00,,,0.02,WeatherCatV1.14B232,2013-04-06 04:54:00,
2013-04-05 22:59:00,43.0,39.7,29.90,WNW,290,0.0,0.0,88,0.00,,,0.02,WeatherCatV1.14B232,2013-04-06 04:59:00,
2013-04-05 23:04:00,42.7,39.7,29.89,WNW,290,0.0,0.0,89,0.00,,,0.02,WeatherCatV1.14B232,2013-04-06 05:04:00,
2013-04-05 23:09:00,42.4,39.7,29.90,WNW,290,0.0,0.0,90,0.00,,,0.02,WeatherCatV1.14B232,2013-04-06 05:09:00,
2013-04-05 23:14:00,42.1,39.4,29.90,WNW,290,0.0,0.0,90,0.00,,,0.02,WeatherCatV1.14B232,2013-04-06 05:14:00,
2013-04-05 23:19:00,41.7,39.5,29.90,WNW,290,0.0,0.0,92,0.00,,,0.02,WeatherCatV1.14B232,2013-04-06 05:19:00,
2013-04-05 23:24:00,41.5,39.4,29.90,East,82,1.0,1.0,92,0.00,,,0.02,WeatherCatV1.14B232,2013-04-06 05:24:00,
2013-04-05 23:29:00,41.5,39.1,29.90,SE,131,0.0,0.0,91,0.00,,,0.02,WeatherCatV1.14B232,2013-04-06 05:29:00,
2013-04-05 23:34:00,41.4,38.7,29.90,ESE,110,1.0,1.0,90,0.00,,,0.02,WeatherCatV1.14B232,2013-04-06 05:34:00,
2013-04-05 23:39:00,41.5,38.5,29.90,South,187,0.0,1.0,89,0.00,,,0.02,WeatherCatV1.14B232,2013-04-06 05:39:00,
2013-04-05 23:44:00,41.4,38.4,29.90,WNW,285,1.0,1.0,89,0.00,,,0.02,WeatherCatV1.14B232,2013-04-06 05:44:00,
2013-04-05 23:49:00,41.2,38.5,29.91,WNW,284,0.0,0.0,90,0.00,,,0.02,WeatherCatV1.14B232,2013-04-06 05:49:00,
2013-04-05 23:54:00,40.9,38.2,29.91,WNW,284,0.0,0.0,90,0.00,,,0.02,WeatherCatV1.14B232,2013-04-06 05:54:00,
2013-04-05 23:59:00,40.4,37.7,29.91,WNW,284,0.0,0.0,90,0.00,,,0.02,WeatherCatV1.14B232,2013-04-06 05:59:00,